FW9915 Weather Reports


time (UTC)temp
F
wind
direction
speed
knots
gust
knots
rain 1hr
in
rain 24hr
in
rain mn
in
humidity
%
barometer
mb
20260905172519 73 175 1.7 3.5 0.00 0.00 0.00 86 1016.0
20260905171531 73 172 1.7 6.1 0.00 0.00 0.00 86 1015.9
20260905170519 73 166 1.7 3.5 0.00 0.00 0.00 87 1015.9
20260905165519 73 162 1.7 6.1 0.00 0.00 0.00 88 1015.8
20260905164531 73 173 1.7 3.5 0.00 0.00 0.00 87 1015.7
20260905163519 74 165 1.7 3.5 0.00 0.00 0.00 86 1015.7
20260905162519 74 169 1.7 3.5 0.00 0.00 0.00 86 1015.7
20260905161519 74 153 1.7 3.5 0.00 0.00 0.00 85 1015.7
20260905160531 74 160 2.6 6.1 0.00 0.00 0.00 86 1015.7
20260905155519 75 170 2.6 6.1 0.00 0.00 0.00 86 1015.7
20260905154531 75 155 2.6 7.8 0.00 0.00 0.00 85 1015.7
20260905153519 75 149 3.5 6.1 0.00 0.00 0.00 84 1015.8
20260905152519 76 166 4.3 9.6 0.00 0.00 0.00 83 1015.8
20260905151519 77 155 3.5 7.8 0.00 0.00 0.00 81 1015.8
20260905150519 78 160 2.6 6.1 0.00 0.00 0.00 80 1015.9
20260905145519 77 167 4.3 7.8 0.00 0.00 0.00 81 1015.9
20260905144519 77 179 3.5 7.8 0.00 0.00 0.00 80 1015.9
20260905143519 78 169 4.3 9.6 0.00 0.00 0.00 81 1016.0
20260905142531 78 169 4.3 7.8 0.00 0.00 0.00 80 1016.0
20260905141519 77 162 6.1 9.6 0.00 0.00 0.00 80 1016.0
20260905140519 78 170 5.2 13.0 0.00 0.00 0.00 79 1016.1
20260905135519 78 170 4.3 7.8 0.00 0.00 0.00 77 1016.2
20260905134543 79 166 4.3 9.6 0.00 0.00 0.00 77 1016.2
20260905133519 78 164 7.8 17.4 0.00 0.00 0.00 77 1016.3
20260905132519 78 167 5.2 17.4 0.00 0.00 0.00 76 1016.3
20260905131555 79 174 5.2 9.6 0.00 0.00 0.00 74 1016.4
20260905130519 78 168 7.0 13.0 0.00 0.00 0.00 74 1016.5
20260905125519 79 161 5.2 13.0 0.00 0.00 0.00 73 1016.6
20260905124531 79 180 5.2 13.0 0.00 0.00 0.00 72 1016.7
20260905123519 79 174 5.2 13.0 0.00 0.00 0.00 71 1016.8
20260905122519 79 169 5.2 14.8 0.00 0.00 0.00 68 1016.8
20260905121520 79 185 4.3 13.0 0.00 0.00 0.00 72 1017.0
20260905120519 79 170 4.3 13.0 0.00 0.00 0.00 75 1017.1
20260905115519 78 154 4.3 9.6 0.00 0.00 0.00 77 1017.2
20260905114539 79 168 4.3 13.0 0.00 0.00 0.00 76 1017.3
20260905113519 78 127 2.6 7.8 0.00 0.02 0.00 76 1017.4
20260905112519 78 144 4.3 14.8 0.00 0.08 0.00 76 1017.5
20260905111519 78 194 4.3 7.8 0.00 0.08 0.00 73 1017.6
20260905110520 78 168 5.2 14.8 0.00 0.08 0.00 71 1017.6
20260905105519 78 183 7.0 13.0 0.00 0.08 0.00 71 1017.6
20260905104531 78 155 4.3 9.6 0.00 0.08 0.00 73 1017.6
20260905103555 78 146 5.2 13.0 0.00 0.08 0.00 73 1017.7
20260905102531 79 128 3.5 7.8 0.00 0.08 0.00 70 1017.7
20260905101519 80 146 3.5 7.8 0.00 0.08 0.00 65 1017.8
20260905100533 79 122 3.5 7.8 0.00 0.08 0.00 67 1017.8
20260905095519 80 171 3.5 9.6 0.00 0.08 0.00 64 1017.8
20260905094531 80 187 3.5 7.8 0.00 0.08 0.00 63 1017.9
20260905093539 79 192 3.5 7.8 0.00 0.08 0.00 67 1017.9
20260905092539 80 196 4.3 7.8 0.00 0.08 0.00 65 1017.9
20260905091519 79 134 3.5 9.6 0.00 0.08 0.00 66 1018.0
20260905090519 80 122 3.5 9.6 0.00 0.08 0.00 60 1018.1
20260905085519 81 163 3.5 7.8 0.00 0.08 0.00 52 1018.1
20260905084519 81 129 0.0 6.1 0.00 0.08 0.00 52 1018.0
20260905083519 80 128 2.6 7.8 0.00 0.08 0.00 53 1018.1
20260905082519 81 0.0 0.0 0.00 0.08 0.00 54 1018.0
20260905081531 81 0.0 0.0 0.00 0.08 0.00 52 1018.0
20260905080519 81 126 0.9 6.1 0.00 0.08 0.00 54 1018.0
20260905075519 81 0.0 0.0 0.00 0.08 0.00 51 1018.0
20260905074551 82 0.0 0.0 0.00 0.08 0.00 55 1017.9
20260905073551 81 0.0 0.0 0.00 0.08 0.00 55 1018.0
20260905072519 81 0.0 0.0 0.00 0.08 0.00 54 1017.9
20260905071519 81 0.0 0.0 0.00 0.08 0.00 54 1017.9
20260905070519 81 0.0 0.0 0.00 0.08 0.00 52 1017.9
20260905065519 81 0.0 0.0 0.00 0.08 0.00 52 1017.9
20260905064539 80 165 0.9 3.5 0.00 0.08 0.00 52 1017.8
20260905063519 80 161 0.9 3.5 0.00 0.08 0.00 52 1017.8
20260905062543 81 135 0.0 1.7 0.00 0.08 0.00 52 1017.8
20260905061519 80 163 0.9 3.5 0.00 0.08 0.00 52 1017.7
20260905060519 81 179 0.0 1.7 0.00 0.08 0.00 52 1017.7
20260905055519 81 178 0.9 3.5 0.00 0.08 0.00 51 1017.7
20260905054531 80 248 0.9 1.7 0.00 0.08 0.00 52 1017.7
20260905053539 80 248 0.0 1.7 0.00 0.08 0.00 55 1017.6
20260905052519 82 248 0.9 1.7 0.00 0.08 0.00 51 1017.6
20260905051519 80 248 0.0 1.7 0.00 0.08 0.00 55 1017.7
20260905050519 80 0.0 0.0 0.00 0.08 0.00 57 1017.7
20260905045539 77 0.0 0.0 0.00 0.08 0.00 59 1017.7
20260905044531 82 0.0 0.0 0.00 0.08 0.00 52 1017.6
20260905043519 79 0.0 0.0 0.00 0.08 0.00 64 1017.6
20260905042519 74 0.0 0.0 0.00 0.08 0.00 71 1017.4
20260905041519 69 0.0 0.0 0.00 0.08 0.00 75 1017.3
20260905040519 67 0.0 0.0 0.00 0.08 0.00 79 1017.3
20260905035519 66 0.0 0.0 0.00 0.08 0.00 81 1017.3
20260905034519 65 0.0 0.0 0.00 0.08 0.00 80 1017.3
20260905033519 64 0.0 0.0 0.00 0.08 0.00 82 1017.3
20260905032539 64 0.0 0.0 0.00 0.08 0.00 83 1017.2
20260905031519 63 0.0 0.0 0.00 0.08 0.00 86 1017.2
20260905030519 62 0.0 0.0 0.00 0.08 0.00 91 1017.1
20260905025519 63 0.0 0.0 0.00 0.08 0.00 90 1017.1
20260905024519 64 0.0 0.0 0.00 0.08 0.00 86 1017.1
20260905023519 65 0.0 0.0 0.00 0.08 0.00 77 1017.1
20260905022531 65 0.0 0.0 0.00 0.08 0.00 72 1017.1
20260905021519 66 0.0 0.0 0.00 0.08 0.00 74 1017.1
20260905020531 67 0.0 0.0 0.00 0.08 0.00 68 1017.2
20260905015519 68 248 0.0 1.7 0.00 0.08 0.00 65 1017.2
20260905014551 69 248 0.0 1.7 0.00 0.08 0.00 65 1017.1
20260905013519 70 248 0.9 1.7 0.00 0.08 0.00 61 1017.1
20260905012519 70 247 1.7 1.7 0.00 0.08 0.00 61 1017.0
20260905011539 69 248 1.7 3.5 0.00 0.08 0.00 64 1017.1
20260905010539 69 248 1.7 3.5 0.00 0.08 0.00 65 1017.2
20260905005543 69 244 1.7 3.5 0.00 0.08 0.00 67 1017.2
20260905004519 69 245 2.6 3.5 0.00 0.08 0.00 67 1017.3
20260905003531 69 252 2.6 6.1 0.00 0.08 0.00 68 1017.2
20260905002519 69 248 1.7 3.5 0.00 0.08 0.00 71 1017.3
20260905001519 69 247 1.7 3.5 0.00 0.08 0.00 73 1017.3
20260905000539 69 247 1.7 6.1 0.00 0.08 0.00 75 1017.3
20260904235519 68 248 1.7 3.5 0.00 0.08 0.00 80 1017.3
20260904234607 69 248 1.7 3.5 0.00 0.08 0.00 82 1017.3
20260904233540 69 248 1.7 3.5 0.00 0.08 0.00 84 1017.3
20260904232519 68 248 1.7 3.5 0.00 0.08 0.00 89 1017.4
20260904231531 68 248 1.7 3.5 0.00 0.08 0.00 94 1017.4
20260904230531 68 248 1.7 3.5 0.00 0.08 0.00 97 1017.5
20260904225519 68 225 0.0 0.0 0.00 0.08 0.00 97 1017.5
20260904224519 68 225 0.9 1.7 0.00 0.08 0.00 97 1017.6
20260904223519 68 238 0.9 1.7 0.00 0.08 0.00 96 1017.5
20260904222607 68 225 0.9 3.5 0.00 0.08 0.00 96 1017.5
20260904221519 69 243 2.6 3.5 0.00 0.08 0.00 96 1017.5
20260904220519 68 238 2.6 3.5 0.00 0.08 0.00 96 1017.6
20260904215531 68 248 1.7 3.5 0.00 0.08 0.00 96 1017.6
20260904214519 68 248 0.9 3.5 0.00 0.08 0.00 96 1017.6
20260904213519 68 248 0.9 3.5 0.00 0.08 0.00 98 1017.6
20260904212519 68 180 0.9 1.7 0.00 0.08 0.00 98 1017.5
20260904211519 68 180 0.9 1.7 0.00 0.08 0.00 99 1017.5
20260904210519 68 180 0.0 1.7 0.00 0.08 0.00 99 1017.5
20260904205519 68 180 0.0 1.7 0.00 0.08 0.08 99 1017.6
20260904204519 68 180 0.9 1.7 0.00 0.08 0.08 99 1017.6
20260904203519 68 180 0.0 1.7 0.00 0.08 0.08 99 1017.6
20260904202519 68 180 0.0 1.7 0.00 0.08 0.08 99 1017.6
20260904201539 68 0.0 0.0 0.00 0.08 0.08 99 1017.6
20260904200531 69 180 0.0 1.7 0.00 0.08 0.08 99 1017.6
20260904195519 68 0.0 0.0 0.00 0.08 0.08 99 1017.7
20260904194519 68 0.0 0.0 0.00 0.08 0.08 99 1017.7
20260904193519 68 0.0 0.0 0.00 0.08 0.08 99 1017.8
20260904192519 68 0.0 0.0 0.00 0.08 0.08 98 1017.9
20260904191531 68 0.0 0.0 0.00 0.08 0.08 98 1017.9
20260904190519 68 0.0 0.0 0.00 0.08 0.08 98 1017.9
20260904185519 68 0.0 0.0 0.00 0.08 0.08 98 1017.9
20260904184519 67 0.0 0.0 0.00 0.08 0.08 98 1017.9
20260904183519 67 0.0 0.0 0.00 0.08 0.08 97 1018.0
20260904182519 68 0.0 0.0 0.00 0.08 0.08 97 1018.0
20260904181519 68 0.0 0.0 0.00 0.08 0.08 97 1017.9
20260904180519 69 0.0 0.0 0.00 0.08 0.08 97 1017.7
20260904175531 68 0.0 0.0 0.00 0.08 0.08 96 1017.7
20260904174519 68 0.0 0.0 0.00 0.08 0.08 96 1017.7
20260904173519 69 0.0 0.0 0.00 0.08 0.08 95 1017.7